Torna al catalogo

GLOBAL-9

AttivoComunicazioniVLEO
NORAD 47971·PAYLOAD·🇺🇸 United States

Lanciato Mar 22, 2021 da Rocket Lab Launch Complex 1

Loading…

Prossimi Passaggi (prossime 24 ore)

TLE

AggiornatoSource: Space-Track

Epoca: Sep 14, 2026, 14:43 UTC

1 47971U 21023G   26257.61338753  .00019543  00000-0  34712-3 0  9996
2 47971  44.9795 106.6313 0004288 209.9822 150.0824 15.49936170308806

Traccia GLOBAL-9 in tempo reale con AllMySat

Download on the App Store